User: anonymous   Login
Location: Albany
(35.0000°S, 118.0000°E)
Time: 22:59:48
(UTC-05:00)
Language:

Cosmos 1758 Rocket - Orbit

View from above orbital plane
View from above orbital plane
View from above satellite
View from above satellite

Ground track
Ground track

The orbit data is extracted from the following two-line orbital elements,

1 16792U 86046B   17328.63149521 +.00000109 +00000-0 +10359-4 0  9993
2 16792 082.4851 051.4424 0025553 123.0886 353.3792 14.83158348677572
Epoch (UTC): 24 November 2017 15:09:21
Eccentricity: 0.0025553
inclination: 82.4851°
perigee height: 601 km
apogee height: 637 km
right ascension of ascending node: 51.4424°
argument of perigee: 123.0886°
revolutions per day: 14.83158348
mean anomaly at epoch: 353.3792°
orbit number at epoch: 67757

The dashed part of the orbit path shows where the satellite is in the earth's shadow,  

DLR